Flag Weather past 2 weeks in Luxembourg, Luxembourg

Now
43 °F

Low clouds.


Feels Like: 41 °F
Forecast: 43 / 53 °F
Wind: 3 mph from Southeast

Location: Luxembourg Airport

Current Time: Nov 22, 2014 at 1:18:17 AM

Latest Report: Nov 22, 2014 at 12:50 AM


Visibility: N/A

Pressure: 30.09 "Hg

Humidity: 93%

Dew point: 41 °F

Location of LuxembourgLocation

Historic Weather in Luxembourg — Graph

°F

Luxembourg temperature yesterday

Maximum temperature yesterday: 43 °F (at 1:20 PM)
Minimum temperature yesterday: 36 °F (at 5:20 AM)
Average temperature yesterday: 40 °F

Past Weeks' High & Low Weather Summary

 TemperatureHumidityPressure
High52 °F (Nov 8, 2:20 PM)100% (Nov 6, 11:20 PM)30.27 "Hg (Nov 6, 11:20 PM)
Low34 °F (Nov 7, 7:20 AM)76% (Nov 19, 2:20 PM)29.53 "Hg (Nov 16, 12:50 PM)
Average44 °F95%29.81 "Hg
* Reported Nov 6 11:20 PM — Nov 21 11:50 PM, Luxembourg, Weather by CustomWeather, © 2014

Note: Actual official high and low records may vary slightly from our data, if they occured in-between our weather recording intervals... More about our weather records

Advertising

Luxembourg weather history for previous 24 hours

 ConditionsComfort  
Time TempWeatherWind HumidityBarometerVisibility
11:50 PM
Nov 21
43 °FLow clouds.5 mph93%30.09 "HgN/A
11:20 PM43 °FLow clouds.5 mph93%30.09 "HgN/A
10:50 PM43 °FLow clouds.3 mph93%30.09 "HgN/A
10:20 PM43 °FLow clouds.3 mph93%30.09 "HgN/A
9:50 PM43 °FLow clouds.3 mph87%30.09 "HgN/A
9:20 PM43 °FLow clouds.3 mph87%30.09 "Hg4 mi
8:50 PM43 °FLow clouds.5 mph87%30.09 "Hg4 mi
8:20 PM43 °FLow clouds.5 mph87%30.09 "Hg5 mi
7:50 PM43 °FLow clouds.3 mph87%30.09 "Hg5 mi
7:20 PM43 °FLow clouds.5 mph87%30.09 "Hg5 mi
6:50 PM43 °FLow clouds.3 mph87%30.09 "Hg5 mi
6:20 PM43 °FLow clouds.6 mph87%30.09 "Hg5 mi
5:50 PM43 °FLow clouds.3 mph87%30.09 "Hg5 mi
5:20 PM43 °FLow clouds.5 mph87%30.09 "Hg5 mi
4:50 PM43 °FOvercast.3 mph87%30.09 "Hg6 mi
4:20 PM43 °FOvercast.3 mph87%30.09 "Hg6 mi
3:50 PM43 °FOvercast.5 mph87%30.09 "Hg6 mi
3:20 PM43 °FOvercast.5 mph87%30.09 "Hg6 mi
2:50 PM43 °FOvercast.3 mph87%30.09 "Hg6 mi
2:20 PM43 °FOvercast.5 mph87%30.09 "Hg6 mi
1:50 PM43 °FOvercast.5 mph87%30.09 "Hg6 mi
1:20 PM43 °FOvercast.5 mph87%30.12 "Hg6 mi
12:50 PM41 °FOvercast.3 mph93%30.12 "Hg4 mi
12:20 PM41 °FPartly sunny.6 mph93%30.12 "Hg3 mi
11:50 AM39 °FPartly sunny.7 mph93%30.12 "Hg3 mi
11:20 AM39 °FOvercast.8 mph93%30.12 "Hg2 mi
10:50 AM39 °FOvercast.8 mph93%30.15 "Hg2 mi
10:20 AM37 °FClear.8 mph100%30.15 "Hg2 mi
9:50 AM37 °FClear.8 mph100%30.15 "Hg2 mi
9:20 AM37 °FFog.8 mph93%30.12 "Hg2 mi
8:50 AM37 °FSleet. Sunny.7 mph93%30.12 "Hg2 mi
8:20 AM36 °FFog.7 mph100%30.12 "Hg2 mi
7:50 AM36 °FFog.7 mph100%30.12 "Hg2 mi
7:20 AM36 °FSleet. Clear.8 mph100%30.12 "Hg3 mi
6:50 AM36 °FSleet. Clear.7 mph100%30.12 "Hg4 mi
6:20 AM36 °FClear.7 mph100%30.15 "Hg4 mi
5:50 AM36 °FChilly.7 mph93%30.15 "HgN/A
5:20 AM36 °FFog.7 mph93%30.15 "Hg2 mi
4:50 AM37 °FFog.9 mph93%30.15 "Hg2 mi
4:20 AM37 °FFog.9 mph93%30.15 "Hg2 mi
3:50 AM37 °FFog.8 mph93%30.15 "Hg2 mi
3:20 AM37 °FChilly.7 mph100%30.18 "HgN/A
2:50 AM37 °FChilly.8 mph100%30.18 "Hg2 mi
2:20 AM37 °FChilly.9 mph100%30.18 "HgN/A
1:50 AM37 °FChilly.8 mph93%30.18 "Hg2 mi
1:20 AM37 °FChilly.10 mph100%30.18 "Hg3 mi
Weather by CustomWeather, © 2014

See weather overviewHow to use our weather pages